Christmas Island, Christmas Island

7:07 PM +07 on August 17, 2017 (GMT +0700)
Christmas Island

Weather History for YPXM - March, 2013

Change the Weather History Date:

Tuesday, March 26, 2013

  Actual Average Record
Temperature  
Mean Temperature 80 °F -  
Max Temperature 84 °F 80 °F 86 °F (2016)
Min Temperature 77 °F 73 °F 32 °F (2006)
Cooling Degree Days 16    
Growing Degree Days 30 (Base 50)    
Moisture  
Dew Point 74 °F    
Average Humidity 81    
Maximum Humidity 94    
Minimum Humidity 33    
Precipitation  
Precipitation 0.43 in - - ()
Sea Level Pressure  
Sea Level Pressure 29.84 in    
Wind  
Wind Speed 10 mph ()    
Max Wind Speed 15 mph    
Max Gust Speed -    
Visibility 6.1 miles    
Events Rain    
Averages and records for this station are not official NWS values.
T = Trace of Precipitation, MM = Missing Value Source: Averaged Metar Reports

Daily Weather History Graph

Daily Weather History Graph

Search for Another Location

Airport or City:

Trip Planner

Search our weather history database for the weather conditions in past years. The results will help you decide how hot, cold, wet, or windy it might be!

Date:

Astronomy

Mar. 26, 2013 Rise Set
Actual Time 6:01 AM +07 6:04 PM +07
Civil Twilight 5:40 AM +07 6:25 PM +07
Nautical Twilight 5:15 AM +07 6:49 PM +07
Astronomical Twilight 4:51 AM +07 7:14 PM +07
Moon 5:10 PM +07 (3/26) 4:45 AM +07 (3/26)
Length of Visible Light 12h 45m
Length of Day
12h 03m
Waxing Gibbous, 98% of the Moon is Illuminated
Mar 26
Waxing Gibbous
Mar 27
Full
Apr 3
Last Quarter
Apr 10
New
Apr 18
First Quarter

Hourly Weather History & Observations

Time (+07) Temp. Heat Index Dew Point Humidity Pressure Visibility Wind Dir Wind Speed Gust Speed Precip Events Conditions
12:00 AM 79 °F - 74 °F 79% 29.85 in - SE 9.2 mph - -  
12:00 AM 78.8 °F - 73.4 °F 83% 29.89 in 6.2 mi SE 9.2 mph - N/A   Scattered Clouds
1:00 AM 78 °F - 74 °F 84% 29.83 in - SE 8.1 mph - -  
1:00 AM 78.8 °F - 73.4 °F 83% 29.86 in 6.2 mi SE 8.1 mph - N/A   Unknown
2:00 AM 78.8 °F - 75.2 °F 89% 29.86 in 6.2 mi SE 8.1 mph - N/A   Scattered Clouds
2:36 AM 78.8 °F - 75.2 °F 89% 29.86 in 6.2 mi SE 8.1 mph - N/A   Mostly Cloudy
3:00 AM 78 °F - 74 °F 85% 29.80 in - SE 8.1 mph - -  
3:00 AM 78.8 °F - 75.2 °F 89% 29.83 in 6.2 mi SE 8.1 mph - N/A   Overcast
3:23 AM 78.8 °F - 73.4 °F 83% 29.83 in 6.2 mi SE 10.4 mph - N/A   Mostly Cloudy
3:56 AM 78.8 °F - 73.4 °F 83% 29.83 in 6.2 mi SE 9.2 mph - N/A   Mostly Cloudy
4:00 AM 78 °F - 74 °F 83% 29.80 in - SE 8.1 mph - -  
4:00 AM 78.8 °F - 73.4 °F 83% 29.83 in 6.2 mi SE 8.1 mph - N/A   Mostly Cloudy
4:27 AM 78.8 °F - 75.2 °F 89% 29.83 in 6.2 mi SE 11.5 mph - N/A   Mostly Cloudy
5:00 AM 78.8 °F - 75.2 °F 89% 29.83 in 6.2 mi SE 10.4 mph - N/A Rain Light Rain
5:38 AM 78.8 °F - 73.4 °F 83% 29.83 in 6.2 mi SE 10.4 mph - N/A   Mostly Cloudy
6:00 AM 78 °F - 74 °F 84% 29.81 in - SE 9.2 mph - -  
6:00 AM 78.8 °F - 73.4 °F 83% 29.86 in 6.2 mi SE 9.2 mph - N/A   Scattered Clouds
6:58 AM 78.8 °F - 73.4 °F 83% 29.86 in 6.2 mi SE 12.7 mph - N/A   Mostly Cloudy
7:00 AM 78 °F - 73 °F 81% 29.83 in - SE 12.7 mph - -  
7:00 AM 78.8 °F - 73.4 °F 83% 29.86 in 6.2 mi SE 12.7 mph - N/A   Mostly Cloudy
8:00 AM 80.6 °F 85.4 °F 73.4 °F 79% 29.89 in 6.2 mi ESE 11.5 mph - N/A   Mostly Cloudy
9:00 AM 83 °F - 58 °F 33% 29.86 in - ESE 12.7 mph - -  
9:00 AM 82.4 °F 82.5 °F 59.0 °F 45% 29.89 in 6.2 mi ESE 12.7 mph - N/A   Scattered Clouds
10:00 AM 83 °F - 75 °F 71% 29.85 in - ESE 13.8 mph - -  
10:00 AM 82.4 °F 89.5 °F 75.2 °F 79% 29.89 in 6.2 mi ESE 13.8 mph - N/A   Scattered Clouds
11:00 AM 82.4 °F 89.5 °F 75.2 °F 79% 29.89 in 6.2 mi ESE 15.0 mph - N/A   Unknown
11:21 AM 82.4 °F 89.5 °F 75.2 °F 79% 29.89 in 6.2 mi ESE 11.5 mph - N/A   Mostly Cloudy
12:00 PM 82 °F - 76 °F 78% 29.83 in - SE 15.0 mph - -   Overcast
12:00 PM 82.4 °F 90.9 °F 77.0 °F 84% 29.86 in 6.2 mi SE 15.0 mph - N/A Rain Light Rain Showers
1:00 PM 81 °F - 76 °F 80% 29.80 in - SE 13.8 mph - -  
1:00 PM 80.6 °F 86.2 °F 75.2 °F 84% 29.83 in 6.2 mi SE 13.8 mph - N/A Rain Light Rain Showers
1:05 PM 77.0 °F - 75.2 °F 94% 29.83 in 2.8 mi SE 13.8 mph - N/A Rain Heavy Rain Showers
1:27 PM 80.6 °F 81.8 °F 62.6 °F 54% 29.83 in 6.2 mi ESE 10.4 mph - N/A Rain Light Rain Showers
2:00 PM 80.6 °F 81.8 °F 62.6 °F 54% 29.83 in 6.2 mi ESE 11.5 mph - N/A   Overcast
3:00 PM 80 °F - 74 °F 79% 29.78 in - ESE 11.5 mph - -   Overcast
3:00 PM 80.6 °F 86.2 °F 75.2 °F 84% 29.80 in 6.2 mi ESE 11.5 mph - N/A   Overcast
3:29 PM 80.6 °F 86.2 °F 75.2 °F 84% 29.80 in 6.2 mi ESE 11.5 mph - N/A   Overcast
3:32 PM 80.6 °F 86.2 °F 75.2 °F 84% 29.80 in 6.2 mi ESE 11.5 mph - N/A   Overcast
4:00 PM 80 °F - 75 °F 81% 29.77 in - SE 11.5 mph - -  
4:00 PM 80.6 °F 86.2 °F 75.2 °F 84% 29.80 in 6.2 mi SE 11.5 mph - N/A   Overcast
5:00 PM 78.8 °F - 75.2 °F 89% 29.80 in 6.2 mi SE 12.7 mph - N/A   Mostly Cloudy
5:29 PM 78.8 °F - 73.4 °F 83% 29.80 in 6.2 mi ESE 10.4 mph - N/A   Scattered Clouds
6:00 PM 79 °F - 73 °F 76% 29.78 in - SE 9.2 mph - -  
6:00 PM 78.8 °F - 73.4 °F 83% 29.83 in 6.2 mi SE 9.2 mph - N/A   Scattered Clouds
7:00 PM 79 °F - 75 °F 83% 29.80 in - SE 11.5 mph - -  
7:00 PM 78.8 °F - 75.2 °F 89% 29.83 in 6.2 mi SE 11.5 mph - N/A   Mostly Cloudy
7:22 PM 78.8 °F - 75.2 °F 89% 29.83 in 6.2 mi SE 10.4 mph - N/A   Mostly Cloudy
7:23 PM 78.8 °F - 75.2 °F 89% 29.83 in 6.2 mi SE 10.4 mph - N/A   Mostly Cloudy
7:53 PM 78.8 °F - 75.2 °F 89% 29.86 in 6.2 mi SE 9.2 mph - N/A Rain Light Rain
8:00 PM 78.8 °F - 75.2 °F 89% 29.86 in 6.2 mi SE 11.5 mph - N/A Rain Light Rain
9:00 PM 79 °F - 75 °F 83% 29.83 in - SE 11.5 mph - -   Overcast
9:00 PM 78.8 °F - 75.2 °F 89% 29.86 in 6.2 mi SE 11.5 mph - N/A   Mostly Cloudy
9:01 PM 78.8 °F - 75.2 °F 89% 29.86 in 6.2 mi SE 12.7 mph - N/A   Mostly Cloudy
9:07 PM 78.8 °F - 75.2 °F 89% 29.86 in 6.2 mi SE 12.7 mph - N/A   Mostly Cloudy
10:00 PM 79 °F - 74 °F 81% 29.85 in - SE 10.4 mph - -  
10:00 PM 78.8 °F - 73.4 °F 83% 29.89 in 6.2 mi SE 10.4 mph - N/A   Mostly Cloudy
11:00 PM 78.8 °F - 75.2 °F 89% 29.89 in 6.2 mi SE 11.5 mph - N/A   Overcast